Time,TemperatureF,DewpointF,PressureIn,WindDirection,WindDirectionDegrees,WindSpeedMPH,WindSpeedGustMPH,Humidity,HourlyPrecipIn,Conditions,Clouds,dailyrainin,SoftwareType,DateUTC
2013-02-07 00:02:00,36.5,33.0,30.15,East,100,0.0,0.0,87,0.00,,,0.00,Wunderground v.1.15,2013-02-07 06:02:00,
2013-02-07 00:07:00,36.3,32.8,30.15,East,101,0.0,0.0,87,0.00,,,0.00,Wunderground v.1.15,2013-02-07 06:07:00,
2013-02-07 00:13:00,36.1,32.6,30.15,East,100,0.0,0.0,87,0.00,,,0.00,Wunderground v.1.15,2013-02-07 06:13:00,
2013-02-07 00:18:00,35.9,32.4,30.14,East,89,0.0,1.0,87,0.00,,,0.00,Wunderground v.1.15,2013-02-07 06:18:00,
2013-02-07 00:23:00,35.8,32.6,30.14,East,99,0.0,0.0,88,0.00,,,0.00,Wunderground v.1.15,2013-02-07 06:23:00,
2013-02-07 00:29:00,35.7,32.8,30.15,East,98,0.0,0.0,89,0.00,,,0.00,Wunderground v.1.15,2013-02-07 06:29:00,
2013-02-07 00:34:00,35.8,32.9,30.14,East,98,0.0,0.0,89,0.00,,,0.00,Wunderground v.1.15,2013-02-07 06:34:00,
2013-02-07 00:39:00,35.8,32.9,30.14,East,98,0.0,0.0,89,0.00,,,0.00,Wunderground v.1.15,2013-02-07 06:39:00,
2013-02-07 00:45:00,36.0,33.1,30.14,SE,127,0.0,0.0,89,0.00,,,0.00,Wunderground v.1.15,2013-02-07 06:45:00,
2013-02-07 00:50:00,36.0,32.8,30.14,SE,134,0.0,0.0,88,0.00,,,0.00,Wunderground v.1.15,2013-02-07 06:50:00,
2013-02-07 00:56:00,35.9,32.7,30.14,SE,134,0.0,0.0,88,0.00,,,0.00,Wunderground v.1.15,2013-02-07 06:56:00,
2013-02-07 01:02:00,35.9,32.7,30.13,SE,134,0.0,0.0,88,0.00,,,0.00,Wunderground v.1.15,2013-02-07 07:02:00,
2013-02-07 01:07:00,36.0,33.1,30.13,SE,130,0.0,0.0,89,0.00,,,0.00,Wunderground v.1.15,2013-02-07 07:07:00,
2013-02-07 01:12:00,36.2,33.3,30.13,SE,143,0.0,2.0,89,0.00,,,0.00,Wunderground v.1.15,2013-02-07 07:12:00,
2013-02-07 01:17:00,36.4,33.2,30.12,East,81,0.0,2.0,88,0.00,,,0.00,Wunderground v.1.15,2013-02-07 07:17:00,
2013-02-07 01:23:00,36.7,33.5,30.12,ESE,103,0.0,0.0,88,0.00,,,0.00,Wunderground v.1.15,2013-02-07 07:23:00,
2013-02-07 01:28:00,36.9,33.4,30.12,East,92,0.0,0.0,87,0.00,,,0.00,Wunderground v.1.15,2013-02-07 07:28:00,
2013-02-07 01:33:00,36.9,33.4,30.12,SE,145,0.0,0.0,87,0.00,,,0.00,Wunderground v.1.15,2013-02-07 07:33:00,
2013-02-07 01:38:00,36.9,33.4,30.12,ESE,108,0.0,1.0,87,0.00,,,0.00,Wunderground v.1.15,2013-02-07 07:38:00,
2013-02-07 01:43:00,36.8,33.3,30.12,ESE,111,0.0,0.0,87,0.00,,,0.00,Wunderground v.1.15,2013-02-07 07:43:00,
2013-02-07 01:49:00,36.7,33.2,30.12,ESE,110,0.0,2.0,87,0.00,,,0.00,Wunderground v.1.15,2013-02-07 07:49:00,
2013-02-07 01:54:00,36.7,33.2,30.12,ESE,108,1.0,2.0,87,0.00,,,0.00,Wunderground v.1.15,2013-02-07 07:54:00,
2013-02-07 01:59:00,36.7,33.2,30.11,East,98,1.0,2.0,87,0.00,,,0.00,Wunderground v.1.15,2013-02-07 07:59:00,
2013-02-07 02:05:00,36.5,33.0,30.11,SSE,148,0.0,3.0,87,0.00,,,0.00,Wunderground v.1.15,2013-02-07 08:05:00,
2013-02-07 02:11:00,36.5,33.0,30.11,ESE,104,1.0,3.0,87,0.00,,,0.00,Wunderground v.1.15,2013-02-07 08:11:00,
2013-02-07 02:16:00,36.5,33.0,30.11,East,94,1.0,3.0,87,0.00,,,0.00,Wunderground v.1.15,2013-02-07 08:16:00,
2013-02-07 02:23:00,36.5,33.0,30.10,ESE,111,1.0,4.0,87,0.00,,,0.00,Wunderground v.1.15,2013-02-07 08:23:00,
2013-02-07 02:29:00,36.6,33.1,30.10,SE,133,1.0,4.0,87,0.00,,,0.00,Wunderground v.1.15,2013-02-07 08:29:00,
2013-02-07 02:34:00,36.6,33.1,30.10,ESE,114,1.0,2.0,87,0.00,,,0.00,Wunderground v.1.15,2013-02-07 08:34:00,
2013-02-07 02:40:00,36.6,33.1,30.10,ENE,58,1.0,1.0,87,0.00,,,0.00,Wunderground v.1.15,2013-02-07 08:40:00,
2013-02-07 02:45:00,36.6,33.1,30.09,SE,127,1.0,2.0,87,0.00,,,0.00,Wunderground v.1.15,2013-02-07 08:45:00,
2013-02-07 02:50:00,36.5,33.0,30.10,SSE,165,1.0,2.0,87,0.00,,,0.00,Wunderground v.1.15,2013-02-07 08:50:00,
2013-02-07 02:56:00,36.4,33.2,30.10,SE,126,0.0,2.0,88,0.00,,,0.00,Wunderground v.1.15,2013-02-07 08:56:00,
2013-02-07 03:01:00,36.6,33.1,30.10,SSE,160,1.0,1.0,87,0.00,,,0.00,Wunderground v.1.15,2013-02-07 09:01:00,
2013-02-07 03:06:00,36.6,33.1,30.10,SE,136,0.0,1.0,87,0.00,,,0.00,Wunderground v.1.15,2013-02-07 09:06:00,
2013-02-07 03:11:00,36.4,32.9,30.09,SSW,198,0.0,1.0,87,0.00,,,0.00,Wunderground v.1.15,2013-02-07 09:11:00,
2013-02-07 03:17:00,36.3,33.1,30.09,SE,124,1.0,2.0,88,0.00,,,0.00,Wunderground v.1.15,2013-02-07 09:17:00,
2013-02-07 03:22:00,36.3,33.1,30.09,ESE,120,0.0,0.0,88,0.00,,,0.00,Wunderground v.1.15,2013-02-07 09:22:00,
2013-02-07 03:27:00,36.2,33.0,30.08,SSE,148,0.0,2.0,88,0.00,,,0.00,Wunderground v.1.15,2013-02-07 09:27:00,
2013-02-07 03:32:00,36.3,33.1,30.08,ESE,112,0.0,0.0,88,0.00,,,0.00,Wunderground v.1.15,2013-02-07 09:32:00,
2013-02-07 03:38:00,36.2,33.0,30.08,SE,131,0.0,1.0,88,0.00,,,0.00,Wunderground v.1.15,2013-02-07 09:38:00,
2013-02-07 03:43:00,36.1,33.2,30.08,SE,131,1.0,1.0,89,0.00,,,0.00,Wunderground v.1.15,2013-02-07 09:43:00,
2013-02-07 03:48:00,36.2,33.3,30.09,SSE,159,0.0,1.0,89,0.00,,,0.00,Wunderground v.1.15,2013-02-07 09:48:00,
2013-02-07 03:54:00,36.1,33.2,30.09,ESE,123,0.0,1.0,89,0.00,,,0.00,Wunderground v.1.15,2013-02-07 09:54:00,
2013-02-07 03:59:00,36.2,33.3,30.10,WSW,245,0.0,1.0,89,0.00,,,0.00,Wunderground v.1.15,2013-02-07 09:59:00,
2013-02-07 04:05:00,36.1,33.2,30.10,West,273,0.0,0.0,89,0.00,,,0.00,Wunderground v.1.15,2013-02-07 10:05:00,
2013-02-07 04:10:00,36.0,33.1,30.10,West,273,0.0,0.0,89,0.00,,,0.00,Wunderground v.1.15,2013-02-07 10:10:00,
2013-02-07 04:15:00,35.9,33.0,30.10,West,269,0.0,0.0,89,0.00,,,0.00,Wunderground v.1.15,2013-02-07 10:15:00,
2013-02-07 04:21:00,35.8,32.9,30.10,West,270,0.0,0.0,89,0.00,,,0.00,Wunderground v.1.15,2013-02-07 10:21:00,
2013-02-07 04:26:00,35.7,32.8,30.09,ENE,76,0.0,0.0,89,0.00,,,0.00,Wunderground v.1.15,2013-02-07 10:26:00,
2013-02-07 04:31:00,35.6,32.7,30.09,ENE,70,0.0,1.0,89,0.00,,,0.00,Wunderground v.1.15,2013-02-07 10:31:00,
2013-02-07 04:36:00,35.4,32.8,30.09,ENE,70,0.0,1.0,90,0.00,,,0.00,Wunderground v.1.15,2013-02-07 10:36:00,
2013-02-07 04:42:00,35.3,32.7,30.09,East,79,0.0,0.0,90,0.00,,,0.00,Wunderground v.1.15,2013-02-07 10:42:00,
2013-02-07 04:47:00,35.1,32.5,30.09,East,79,0.0,0.0,90,0.00,,,0.00,Wunderground v.1.15,2013-02-07 10:47:00,
2013-02-07 04:52:00,35.2,32.8,30.09,ESE,105,0.0,0.0,91,0.00,,,0.00,Wunderground v.1.15,2013-02-07 10:52:00,
2013-02-07 04:58:00,35.2,32.6,30.08,ESE,110,0.0,0.0,90,0.00,,,0.00,Wunderground v.1.15,2013-02-07 10:58:00,
2013-02-07 05:04:00,34.9,32.3,30.08,ESE,117,0.0,0.0,90,0.00,,,0.00,Wunderground v.1.15,2013-02-07 11:04:00,
2013-02-07 05:09:00,34.6,32.0,30.08,SE,136,0.0,0.0,90,0.00,,,0.00,Wunderground v.1.15,2013-02-07 11:09:00,
2013-02-07 05:14:00,34.4,32.0,30.08,SE,136,0.0,0.0,91,0.00,,,0.00,Wunderground v.1.15,2013-02-07 11:14:00,
2013-02-07 05:19:00,34.2,31.8,30.08,SE,125,0.0,0.0,91,0.00,,,0.00,Wunderground v.1.15,2013-02-07 11:19:00,
2013-02-07 05:24:00,33.9,31.6,30.08,SE,125,0.0,0.0,91,0.00,,,0.00,Wunderground v.1.15,2013-02-07 11:24:00,
2013-02-07 05:30:00,33.5,31.2,30.07,East,99,0.0,0.0,91,0.00,,,0.00,Wunderground v.1.15,2013-02-07 11:30:00,
2013-02-07 05:35:00,33.3,31.2,30.07,SE,133,0.0,1.0,92,0.00,,,0.00,Wunderground v.1.15,2013-02-07 11:35:00,
2013-02-07 05:41:00,33.0,30.9,30.06,ESE,117,0.0,0.0,92,0.00,,,0.00,Wunderground v.1.15,2013-02-07 11:41:00,
2013-02-07 05:46:00,32.8,30.7,30.06,East,82,0.0,0.0,92,0.00,,,0.00,Wunderground v.1.15,2013-02-07 11:46:00,
2013-02-07 05:51:00,33.1,31.3,30.06,SE,131,0.0,0.0,93,0.00,,,0.00,Wunderground v.1.15,2013-02-07 11:51:00,
2013-02-07 05:57:00,33.5,31.7,30.06,SE,131,0.0,0.0,93,0.00,,,0.00,Wunderground v.1.15,2013-02-07 11:57:00,
2013-02-07 06:03:00,33.9,32.1,30.06,ENE,77,0.0,0.0,93,0.00,,,0.00,Wunderground v.1.15,2013-02-07 12:03:00,
2013-02-07 06:08:00,33.7,31.6,30.06,SSE,155,0.0,0.0,92,0.00,,,0.00,Wunderground v.1.15,2013-02-07 12:08:00,
2013-02-07 06:13:00,33.2,31.1,30.05,SE,124,0.0,0.0,92,0.00,,,0.00,Wunderground v.1.15,2013-02-07 12:13:00,
2013-02-07 06:18:00,32.9,30.8,30.05,SW,225,0.0,0.0,92,0.00,,,0.00,Wunderground v.1.15,2013-02-07 12:18:00,
2013-02-07 06:24:00,33.0,31.2,30.05,SE,136,0.0,0.0,93,0.00,,,0.00,Wunderground v.1.15,2013-02-07 12:24:00,
2013-02-07 06:29:00,33.1,31.3,30.05,ESE,121,0.0,0.0,93,0.00,,,0.00,Wunderground v.1.15,2013-02-07 12:29:00,
2013-02-07 06:34:00,33.1,31.3,30.04,SE,146,0.0,0.0,93,0.00,,,0.00,Wunderground v.1.15,2013-02-07 12:34:00,
2013-02-07 06:39:00,33.0,31.2,30.04,SSE,165,0.0,0.0,93,0.00,,,0.00,Wunderground v.1.15,2013-02-07 12:39:00,
2013-02-07 06:45:00,33.3,31.8,30.04,SE,139,0.0,1.0,94,0.00,,,0.00,Wunderground v.1.15,2013-02-07 12:45:00,
2013-02-07 06:50:00,33.7,31.9,30.04,SE,136,0.0,0.0,93,0.00,,,0.00,Wunderground v.1.15,2013-02-07 12:50:00,
2013-02-07 06:55:00,33.9,32.1,30.04,SE,142,0.0,2.0,93,0.00,,,0.00,Wunderground v.1.15,2013-02-07 12:55:00,
2013-02-07 07:00:00,33.9,32.1,30.04,SSE,156,1.0,1.0,93,0.00,,,0.00,Wunderground v.1.15,2013-02-07 13:00:00,
2013-02-07 07:06:00,33.9,31.8,30.04,East,89,1.0,1.0,92,0.00,,,0.00,Wunderground v.1.15,2013-02-07 13:06:00,
2013-02-07 07:11:00,33.7,31.6,30.04,WSW,243,0.0,0.0,92,0.00,,,0.00,Wunderground v.1.15,2013-02-07 13:11:00,
2013-02-07 07:16:00,33.5,31.4,30.05,South,176,0.0,0.0,92,0.00,,,0.00,Wunderground v.1.15,2013-02-07 13:16:00,
2013-02-07 07:22:00,33.3,31.5,30.05,ESE,113,0.0,0.0,93,0.00,,,0.00,Wunderground v.1.15,2013-02-07 13:22:00,
2013-02-07 07:27:00,33.5,31.7,30.05,East,101,0.0,1.0,93,0.00,,,0.00,Wunderground v.1.15,2013-02-07 13:27:00,
2013-02-07 07:33:00,34.3,32.8,30.05,SE,136,0.0,0.0,94,0.00,,,0.00,Wunderground v.1.15,2013-02-07 13:33:00,
2013-02-07 07:38:00,34.7,32.9,30.05,East,93,0.0,0.0,93,0.00,,,0.00,Wunderground v.1.15,2013-02-07 13:38:00,
2013-02-07 07:43:00,35.7,33.9,30.05,SE,143,0.0,0.0,93,0.00,,,0.00,Wunderground v.1.15,2013-02-07 13:43:00,
2013-02-07 07:49:00,36.3,33.9,30.05,South,187,0.0,0.0,91,0.00,,,0.00,Wunderground v.1.15,2013-02-07 13:49:00,
2013-02-07 07:54:00,37.1,34.7,30.04,ESE,112,0.0,0.0,91,0.00,,,0.00,Wunderground v.1.15,2013-02-07 13:54:00,
2013-02-07 07:59:00,37.6,34.9,30.04,ESE,120,0.0,3.0,90,0.00,,,0.00,Wunderground v.1.15,2013-02-07 13:59:00,
2013-02-07 08:05:00,38.2,35.2,30.04,SSE,149,1.0,3.0,89,0.00,,,0.00,Wunderground v.1.15,2013-02-07 14:05:00,
2013-02-07 08:10:00,38.9,35.6,30.05,SE,146,1.0,2.0,88,0.00,,,0.00,Wunderground v.1.15,2013-02-07 14:10:00,
2013-02-07 08:16:00,39.8,36.0,30.05,SSW,205,0.0,2.0,86,0.00,,,0.00,Wunderground v.1.15,2013-02-07 14:16:00,
2013-02-07 08:21:00,40.6,36.4,30.05,ESE,122,0.0,1.0,85,0.00,,,0.00,Wunderground v.1.15,2013-02-07 14:21:00,
2013-02-07 08:27:00,41.2,36.7,30.05,SE,133,0.0,2.0,84,0.00,,,0.00,Wunderground v.1.15,2013-02-07 14:27:00,
2013-02-07 08:32:00,41.6,36.8,30.04,SE,124,1.0,1.0,83,0.00,,,0.00,Wunderground v.1.15,2013-02-07 14:32:00,
2013-02-07 08:37:00,42.3,37.2,30.04,SSW,195,1.0,4.0,82,0.00,,,0.00,Wunderground v.1.15,2013-02-07 14:37:00,
2013-02-07 08:42:00,43.0,37.9,30.03,ENE,67,1.0,1.0,82,0.00,,,0.00,Wunderground v.1.15,2013-02-07 14:42:00,
2013-02-07 08:48:00,43.5,37.7,30.03,SSE,158,1.0,6.0,80,0.00,,,0.00,Wunderground v.1.15,2013-02-07 14:48:00,
2013-02-07 08:54:00,43.9,37.8,30.03,East,86,2.0,3.0,79,0.00,,,0.00,Wunderground v.1.15,2013-02-07 14:54:00,
2013-02-07 08:59:00,44.2,37.8,30.03,SE,142,3.0,6.0,78,0.00,,,0.00,Wunderground v.1.15,2013-02-07 14:59:00,
2013-02-07 09:05:00,44.8,38.0,30.03,SE,131,3.0,5.0,77,0.00,,,0.00,Wunderground v.1.15,2013-02-07 15:05:00,
2013-02-07 09:10:00,45.2,38.1,30.02,ENE,63,3.0,3.0,76,0.00,,,0.00,Wunderground v.1.15,2013-02-07 15:10:00,
2013-02-07 09:15:00,45.8,39.0,30.02,ENE,76,3.0,5.0,77,0.00,,,0.00,Wunderground v.1.15,2013-02-07 15:15:00,
2013-02-07 09:21:00,46.3,38.5,30.01,SE,139,3.0,6.0,74,0.00,,,0.00,Wunderground v.1.15,2013-02-07 15:21:00,
2013-02-07 09:26:00,46.6,38.4,30.01,SE,135,3.0,6.0,73,0.00,,,0.00,Wunderground v.1.15,2013-02-07 15:26:00,
2013-02-07 09:32:00,47.3,39.1,30.01,SSE,155,2.0,3.0,73,0.00,,,0.00,Wunderground v.1.15,2013-02-07 15:32:00,
2013-02-07 09:37:00,47.8,39.2,30.01,SE,136,2.0,4.0,72,0.00,,,0.00,Wunderground v.1.15,2013-02-07 15:37:00,
2013-02-07 09:42:00,48.2,39.9,30.01,ESE,120,2.0,2.0,73,0.00,,,0.00,Wunderground v.1.15,2013-02-07 15:42:00,
2013-02-07 09:47:00,48.9,39.9,30.01,ESE,117,1.0,4.0,71,0.00,,,0.00,Wunderground v.1.15,2013-02-07 15:47:00,
2013-02-07 09:53:00,49.3,39.9,30.01,East,96,2.0,6.0,70,0.00,,,0.00,Wunderground v.1.15,2013-02-07 15:53:00,
2013-02-07 09:58:00,49.3,39.2,30.01,East,96,4.0,8.0,68,0.00,,,0.00,Wunderground v.1.15,2013-02-07 15:58:00,
2013-02-07 10:04:00,49.7,40.3,30.00,ESE,120,4.0,6.0,70,0.00,,,0.00,Wunderground v.1.15,2013-02-07 16:04:00,
2013-02-07 10:09:00,50.2,40.8,30.01,SSE,160,3.0,6.0,70,0.00,,,0.00,Wunderground v.1.15,2013-02-07 16:09:00,
2013-02-07 10:14:00,51.0,41.2,30.01,ENE,67,2.0,3.0,69,0.00,,,0.00,Wunderground v.1.15,2013-02-07 16:14:00,
2013-02-07 10:19:00,51.8,41.6,30.01,South,191,1.0,4.0,68,0.00,,,0.00,Wunderground v.1.15,2013-02-07 16:19:00,
2013-02-07 10:24:00,52.3,41.3,30.00,SW,229,2.0,4.0,66,0.00,,,0.00,Wunderground v.1.15,2013-02-07 16:24:00,
2013-02-07 10:30:00,52.8,41.7,30.00,WSW,245,2.0,2.0,66,0.00,,,0.00,Wunderground v.1.15,2013-02-07 16:30:00,
2013-02-07 10:35:00,53.3,42.2,30.00,ESE,115,2.0,8.0,66,0.00,,,0.00,Wunderground v.1.15,2013-02-07 16:35:00,
2013-02-07 10:40:00,53.7,41.8,30.00,SE,129,2.0,2.0,64,0.00,,,0.00,Wunderground v.1.15,2013-02-07 16:40:00,
2013-02-07 10:46:00,54.2,41.5,30.00,SSW,204,2.0,4.0,62,0.00,,,0.00,Wunderground v.1.15,2013-02-07 16:46:00,
2013-02-07 10:51:00,54.7,41.5,29.99,South,169,2.0,7.0,61,0.00,,,0.00,Wunderground v.1.15,2013-02-07 16:51:00,
2013-02-07 10:56:00,55.2,41.5,29.99,SSE,150,3.0,7.0,60,0.00,,,0.00,Wunderground v.1.15,2013-02-07 16:56:00,
2013-02-07 11:02:00,55.7,41.1,29.99,SSW,212,2.0,3.0,58,0.00,,,0.00,Wunderground v.1.15,2013-02-07 17:02:00,
2013-02-07 11:07:00,56.1,42.4,29.99,SE,141,2.0,5.0,60,0.00,,,0.00,Wunderground v.1.15,2013-02-07 17:07:00,
2013-02-07 11:12:00,56.4,41.8,29.98,ESE,112,3.0,3.0,58,0.00,,,0.00,Wunderground v.1.15,2013-02-07 17:12:00,
2013-02-07 11:17:00,56.8,43.1,29.98,ESE,117,3.0,4.0,60,0.00,,,0.00,Wunderground v.1.15,2013-02-07 17:17:00,
2013-02-07 11:23:00,57.2,42.5,29.97,SSW,197,2.0,3.0,58,0.00,,,0.00,Wunderground v.1.15,2013-02-07 17:23:00,
2013-02-07 11:28:00,57.6,42.9,29.97,SSW,193,2.0,3.0,58,0.00,,,0.00,Wunderground v.1.15,2013-02-07 17:28:00,
2013-02-07 11:34:00,57.7,42.6,29.96,South,175,2.0,2.0,57,0.00,,,0.00,Wunderground v.1.15,2013-02-07 17:34:00,
2013-02-07 11:39:00,58.3,43.1,29.96,ESE,119,1.0,2.0,57,0.00,,,0.00,Wunderground v.1.15,2013-02-07 17:39:00,
2013-02-07 11:45:00,58.7,43.0,29.95,West,281,1.0,2.0,56,0.00,,,0.00,Wunderground v.1.15,2013-02-07 17:45:00,
2013-02-07 11:50:00,59.2,43.5,29.95,WNW,301,1.0,1.0,56,0.00,,,0.00,Wunderground v.1.15,2013-02-07 17:50:00,
2013-02-07 11:56:00,59.4,43.7,29.94,SE,141,2.0,6.0,56,0.00,,,0.00,Wunderground v.1.15,2013-02-07 17:56:00,
2013-02-07 12:02:00,59.7,43.5,29.94,SW,226,2.0,4.0,55,0.00,,,0.00,Wunderground v.1.15,2013-02-07 18:02:00,
2013-02-07 12:07:00,59.6,43.4,29.94,SSW,210,3.0,7.0,55,0.00,,,0.00,Wunderground v.1.15,2013-02-07 18:07:00,
2013-02-07 12:13:00,59.5,42.8,29.94,SW,224,2.0,4.0,54,0.00,,,0.00,Wunderground v.1.15,2013-02-07 18:13:00,
2013-02-07 12:18:00,59.5,43.3,29.94,SSE,150,3.0,4.0,55,0.00,,,0.00,Wunderground v.1.15,2013-02-07 18:18:00,
2013-02-07 12:24:00,59.5,43.8,29.93,East,82,3.0,5.0,56,0.00,,,0.00,Wunderground v.1.15,2013-02-07 18:24:00,
2013-02-07 12:29:00,59.4,43.2,29.93,SE,133,2.0,5.0,55,0.00,,,0.00,Wunderground v.1.15,2013-02-07 18:29:00,
2013-02-07 12:34:00,59.4,44.2,29.93,SW,217,3.0,3.0,57,0.00,,,0.00,Wunderground v.1.15,2013-02-07 18:34:00,
2013-02-07 12:40:00,59.5,44.2,29.93,SSE,153,3.0,3.0,57,0.00,,,0.00,Wunderground v.1.15,2013-02-07 18:40:00,
2013-02-07 12:45:00,59.5,44.7,29.92,SSE,162,3.0,5.0,58,0.00,,,0.00,Wunderground v.1.15,2013-02-07 18:45:00,
2013-02-07 12:50:00,59.5,44.7,29.92,SW,218,2.0,2.0,58,0.00,,,0.00,Wunderground v.1.15,2013-02-07 18:50:00,
2013-02-07 12:56:00,59.8,44.5,29.92,ESE,105,2.0,3.0,57,0.00,,,0.00,Wunderground v.1.15,2013-02-07 18:56:00,
2013-02-07 13:02:00,60.0,45.2,29.92,SSE,165,3.0,3.0,58,0.00,,,0.00,Wunderground v.1.15,2013-02-07 19:02:00,
2013-02-07 13:07:00,60.3,45.5,29.92,WSW,252,2.0,3.0,58,0.00,,,0.00,Wunderground v.1.15,2013-02-07 19:07:00,
2013-02-07 13:12:00,60.6,45.7,29.91,South,189,1.0,5.0,58,0.00,,,0.00,Wunderground v.1.15,2013-02-07 19:12:00,
2013-02-07 13:17:00,60.7,45.8,29.91,South,181,2.0,5.0,58,0.00,,,0.00,Wunderground v.1.15,2013-02-07 19:17:00,
2013-02-07 13:23:00,60.8,45.9,29.91,SW,224,2.0,6.0,58,0.00,,,0.00,Wunderground v.1.15,2013-02-07 19:23:00,
2013-02-07 13:28:00,61.1,46.7,29.90,SW,215,2.0,6.0,59,0.00,,,0.00,Wunderground v.1.15,2013-02-07 19:28:00,
2013-02-07 13:34:00,61.2,45.8,29.90,SSE,167,3.0,4.0,57,0.00,,,0.00,Wunderground v.1.15,2013-02-07 19:34:00,
2013-02-07 13:39:00,61.3,46.4,29.90,WSW,245,3.0,5.0,58,0.00,,,0.00,Wunderground v.1.15,2013-02-07 19:39:00,
2013-02-07 13:44:00,61.4,46.9,29.90,SW,235,3.0,4.0,59,0.00,,,0.00,Wunderground v.1.15,2013-02-07 19:44:00,
2013-02-07 13:50:00,62.0,48.0,29.89,South,179,2.0,2.0,60,0.00,,,0.00,Wunderground v.1.15,2013-02-07 19:50:00,
2013-02-07 13:55:00,62.3,47.3,29.89,SSE,148,2.0,4.0,58,0.00,,,0.00,Wunderground v.1.15,2013-02-07 19:55:00,
2013-02-07 14:00:00,62.5,46.6,29.89,SSW,193,2.0,2.0,56,0.00,,,0.00,Wunderground v.1.15,2013-02-07 20:00:00,
2013-02-07 14:06:00,62.8,47.8,29.89,SE,139,1.0,4.0,58,0.00,,,0.00,Wunderground v.1.15,2013-02-07 20:06:00,
2013-02-07 14:11:00,62.7,47.7,29.89,SSW,205,2.0,5.0,58,0.00,,,0.00,Wunderground v.1.15,2013-02-07 20:11:00,
2013-02-07 14:16:00,62.7,47.7,29.89,SE,135,3.0,5.0,58,0.00,,,0.00,Wunderground v.1.15,2013-02-07 20:16:00,
2013-02-07 14:22:00,62.9,47.9,29.88,ESE,105,2.0,4.0,58,0.00,,,0.00,Wunderground v.1.15,2013-02-07 20:22:00,
2013-02-07 14:27:00,62.9,48.3,29.88,SSW,204,2.0,5.0,59,0.00,,,0.00,Wunderground v.1.15,2013-02-07 20:27:00,
2013-02-07 14:32:00,63.3,48.3,29.88,SW,218,2.0,3.0,58,0.00,,,0.00,Wunderground v.1.15,2013-02-07 20:32:00,
2013-02-07 14:37:00,63.4,48.8,29.88,East,99,2.0,4.0,59,0.00,,,0.00,Wunderground v.1.15,2013-02-07 20:37:00,
2013-02-07 14:43:00,62.8,47.8,29.88,SW,222,3.0,5.0,58,0.00,,,0.00,Wunderground v.1.15,2013-02-07 20:43:00,
2013-02-07 14:48:00,62.3,48.2,29.88,South,190,2.0,5.0,60,0.00,,,0.00,Wunderground v.1.15,2013-02-07 20:48:00,
2013-02-07 14:54:00,62.1,48.9,29.88,SSW,201,1.0,2.0,62,0.00,,,0.00,Wunderground v.1.15,2013-02-07 20:54:00,
2013-02-07 14:59:00,62.3,48.7,29.87,SE,142,1.0,4.0,61,0.00,,,0.00,Wunderground v.1.15,2013-02-07 20:59:00,
2013-02-07 15:05:00,62.8,49.1,29.86,East,94,1.0,2.0,61,0.00,,,0.00,Wunderground v.1.15,2013-02-07 21:05:00,
2013-02-07 15:10:00,63.4,50.1,29.86,SSW,208,1.0,1.0,62,0.00,,,0.00,Wunderground v.1.15,2013-02-07 21:10:00,
2013-02-07 15:15:00,63.5,49.4,29.86,SSW,207,1.0,3.0,60,0.00,,,0.00,Wunderground v.1.15,2013-02-07 21:15:00,
2013-02-07 15:21:00,63.2,49.5,29.85,SSE,163,1.0,1.0,61,0.00,,,0.00,Wunderground v.1.15,2013-02-07 21:21:00,
2013-02-07 15:26:00,62.6,49.4,29.85,SE,124,1.0,2.0,62,0.00,,,0.00,Wunderground v.1.15,2013-02-07 21:26:00,
2013-02-07 15:31:00,62.0,49.3,29.84,SSE,162,1.0,1.0,63,0.00,,,0.00,Wunderground v.1.15,2013-02-07 21:31:00,
2013-02-07 15:37:00,61.7,49.4,29.85,SW,233,0.0,1.0,64,0.00,,,0.00,Wunderground v.1.15,2013-02-07 21:37:00,
2013-02-07 15:42:00,61.5,49.6,29.85,SW,217,0.0,0.0,65,0.00,,,0.00,Wunderground v.1.15,2013-02-07 21:42:00,
2013-02-07 15:48:00,61.3,49.8,29.85,South,181,0.0,0.0,66,0.00,,,0.00,Wunderground v.1.15,2013-02-07 21:48:00,
2013-02-07 15:53:00,61.3,49.4,29.85,WSW,245,0.0,0.0,65,0.00,,,0.00,Wunderground v.1.15,2013-02-07 21:53:00,
2013-02-07 15:58:00,61.4,49.9,29.84,SSE,160,0.0,0.0,66,0.00,,,0.00,Wunderground v.1.15,2013-02-07 21:58:00,
2013-02-07 16:04:00,61.6,50.1,29.84,SSE,150,0.0,0.0,66,0.00,,,0.00,Wunderground v.1.15,2013-02-07 22:04:00,
2013-02-07 16:10:00,61.6,49.7,29.84,SE,142,0.0,0.0,65,0.00,,,0.00,Wunderground v.1.15,2013-02-07 22:10:00,
2013-02-07 16:15:00,61.3,50.2,29.84,SE,129,0.0,0.0,67,0.00,,,0.00,Wunderground v.1.15,2013-02-07 22:15:00,
2013-02-07 16:20:00,60.9,50.3,29.83,ESE,117,0.0,0.0,68,0.00,,,0.00,Wunderground v.1.15,2013-02-07 22:20:00,
2013-02-07 16:26:00,60.6,50.4,29.84,SE,139,0.0,2.0,69,0.00,,,0.00,Wunderground v.1.15,2013-02-07 22:26:00,
2013-02-07 16:31:00,60.3,50.1,29.84,SE,139,0.0,0.0,69,0.00,,,0.00,Wunderground v.1.15,2013-02-07 22:31:00,
2013-02-07 16:36:00,60.0,50.6,29.83,ESE,121,0.0,0.0,71,0.00,,,0.00,Wunderground v.1.15,2013-02-07 22:36:00,
2013-02-07 16:41:00,59.6,50.2,29.84,SW,224,0.0,0.0,71,0.00,,,0.00,Wunderground v.1.15,2013-02-07 22:41:00,
2013-02-07 16:47:00,59.1,50.5,29.83,SE,139,0.0,1.0,73,0.00,,,0.00,Wunderground v.1.15,2013-02-07 22:47:00,
2013-02-07 16:52:00,58.6,50.3,29.83,East,86,0.0,0.0,74,0.00,,,0.00,Wunderground v.1.15,2013-02-07 22:52:00,
2013-02-07 16:58:00,58.0,50.1,29.83,East,86,0.0,0.0,75,0.00,,,0.00,Wunderground v.1.15,2013-02-07 22:58:00,
2013-02-07 17:04:00,57.7,50.2,29.83,East,86,0.0,0.0,76,0.00,,,0.00,Wunderground v.1.15,2013-02-07 23:04:00,
2013-02-07 17:09:00,57.3,49.8,29.83,East,86,0.0,0.0,76,0.00,,,0.00,Wunderground v.1.15,2013-02-07 23:09:00,
2013-02-07 17:14:00,57.0,49.9,29.83,East,86,0.0,0.0,77,0.00,,,0.00,Wunderground v.1.15,2013-02-07 23:14:00,
2013-02-07 17:19:00,56.7,49.6,29.83,East,86,0.0,0.0,77,0.00,,,0.00,Wunderground v.1.15,2013-02-07 23:19:00,
2013-02-07 17:25:00,56.6,49.8,29.83,East,86,0.0,0.0,78,0.00,,,0.00,Wunderground v.1.15,2013-02-07 23:25:00,
2013-02-07 17:30:00,56.5,49.7,29.83,East,86,0.0,0.0,78,0.00,,,0.00,Wunderground v.1.15,2013-02-07 23:30:00,
2013-02-07 17:36:00,55.9,49.8,29.83,East,79,0.0,1.0,80,0.00,,,0.00,Wunderground v.1.15,2013-02-07 23:36:00,
2013-02-07 17:41:00,55.6,49.5,29.83,East,79,0.0,0.0,80,0.00,,,0.00,Wunderground v.1.15,2013-02-07 23:41:00,
2013-02-07 17:46:00,55.6,49.9,29.83,East,79,0.0,0.0,81,0.00,,,0.00,Wunderground v.1.15,2013-02-07 23:46:00,
2013-02-07 17:52:00,55.3,49.6,29.83,East,79,0.0,0.0,81,0.00,,,0.00,Wunderground v.1.15,2013-02-07 23:52:00,
2013-02-07 17:57:00,55.2,49.5,29.83,East,79,0.0,0.0,81,0.00,,,0.00,Wunderground v.1.15,2013-02-07 23:57:00,
2013-02-07 18:03:00,55.2,49.5,29.83,East,79,0.0,0.0,81,0.00,,,0.00,Wunderground v.1.15,2013-02-08 00:03:00,
2013-02-07 18:08:00,55.2,49.5,29.83,East,79,0.0,0.0,81,0.00,,,0.00,Wunderground v.1.15,2013-02-08 00:08:00,
2013-02-07 18:14:00,55.1,49.7,29.83,East,79,0.0,0.0,82,0.00,,,0.00,Wunderground v.1.15,2013-02-08 00:14:00,
2013-02-07 18:19:00,55.1,49.7,29.83,East,79,0.0,0.0,82,0.00,,,0.00,Wunderground v.1.15,2013-02-08 00:19:00,
2013-02-07 18:25:00,55.3,50.5,29.85,NW,307,2.0,10.0,84,0.00,,,0.00,Wunderground v.1.15,2013-02-08 00:25:00,
2013-02-07 18:30:00,56.1,50.3,29.86,NW,316,9.0,15.0,81,0.00,,,0.00,Wunderground v.1.15,2013-02-08 00:30:00,
2013-02-07 18:35:00,54.4,50.0,29.86,NW,310,13.0,15.0,85,0.00,,,0.01,Wunderground v.1.15,2013-02-08 00:35:00,
2013-02-07 18:40:00,53.4,49.9,29.86,NW,314,10.0,10.0,88,0.10,,,0.02,Wunderground v.1.15,2013-02-08 00:40:00,
2013-02-07 18:46:00,52.8,49.9,29.86,NW,311,8.0,10.0,90,0.07,,,0.02,Wunderground v.1.15,2013-02-08 00:46:00,
2013-02-07 18:51:00,52.5,49.9,29.86,WNW,300,8.0,8.0,91,0.04,,,0.02,Wunderground v.1.15,2013-02-08 00:51:00,
2013-02-07 18:56:00,52.3,50.0,29.86,WNW,291,6.0,8.0,92,0.04,,,0.03,Wunderground v.1.15,2013-02-08 00:56:00,
2013-02-07 19:01:00,52.1,49.8,29.86,WNW,302,5.0,5.0,92,0.04,,,0.03,Wunderground v.1.15,2013-02-08 01:01:00,
2013-02-07 19:07:00,51.8,49.8,29.86,WNW,300,3.0,5.0,93,0.05,,,0.04,Wunderground v.1.15,2013-02-08 01:07:00,
2013-02-07 19:13:00,51.7,49.7,29.87,WNW,297,2.0,4.0,93,0.05,,,0.04,Wunderground v.1.15,2013-02-08 01:13:00,
2013-02-07 19:18:00,51.6,49.6,29.86,NW,307,3.0,4.0,93,0.05,,,0.04,Wunderground v.1.15,2013-02-08 01:18:00,
2013-02-07 19:23:00,51.4,49.7,29.86,WNW,302,3.0,3.0,94,0.04,,,0.05,Wunderground v.1.15,2013-02-08 01:23:00,
2013-02-07 19:29:00,51.3,49.6,29.86,WNW,288,2.0,3.0,94,0.04,,,0.05,Wunderground v.1.15,2013-02-08 01:29:00,
2013-02-07 19:34:00,51.2,49.5,29.86,WNW,295,3.0,3.0,94,0.04,,,0.05,Wunderground v.1.15,2013-02-08 01:34:00,
2013-02-07 19:40:00,51.2,49.8,29.86,WNW,290,2.0,2.0,95,0.00,,,0.05,Wunderground v.1.15,2013-02-08 01:40:00,
2013-02-07 19:45:00,51.2,49.8,29.86,NW,307,2.0,3.0,95,0.00,,,0.05,Wunderground v.1.15,2013-02-08 01:45:00,
2013-02-07 19:51:00,51.1,49.7,29.86,NW,322,2.0,2.0,95,0.00,,,0.06,Wunderground v.1.15,2013-02-08 01:51:00,
2013-02-07 19:56:00,51.1,49.7,29.86,NW,311,3.0,5.0,95,0.00,,,0.06,Wunderground v.1.15,2013-02-08 01:56:00,
2013-02-07 20:02:00,51.0,49.6,29.86,NW,307,4.0,6.0,95,0.00,,,0.06,Wunderground v.1.15,2013-02-08 02:02:00,
2013-02-07 20:08:00,51.0,49.6,29.87,WNW,302,5.0,8.0,95,0.00,,,0.06,Wunderground v.1.15,2013-02-08 02:08:00,
2013-02-07 20:13:00,50.9,49.5,29.87,WNW,293,5.0,8.0,95,0.00,,,0.06,Wunderground v.1.15,2013-02-08 02:13:00,
2013-02-07 20:19:00,50.8,49.4,29.87,WNW,303,7.0,9.0,95,0.00,,,0.07,Wunderground v.1.15,2013-02-08 02:19:00,
2013-02-07 20:25:00,50.6,49.2,29.87,NW,314,7.0,9.0,95,0.07,,,0.08,Wunderground v.1.15,2013-02-08 02:25:00,
2013-02-07 20:30:00,50.3,48.6,29.87,WNW,299,7.0,7.0,94,0.07,,,0.08,Wunderground v.1.15,2013-02-08 02:30:00,
2013-02-07 20:35:00,50.1,48.7,29.87,WNW,302,7.0,7.0,95,0.06,,,0.09,Wunderground v.1.15,2013-02-08 02:35:00,
2013-02-07 20:41:00,49.9,48.5,29.88,WNW,303,7.0,11.0,95,0.06,,,0.09,Wunderground v.1.15,2013-02-08 02:41:00,
2013-02-07 20:47:00,49.7,48.0,29.88,WNW,299,8.0,11.0,94,0.05,,,0.09,Wunderground v.1.15,2013-02-08 02:47:00,
2013-02-07 20:52:00,49.5,47.8,29.88,NW,309,8.0,10.0,94,0.00,,,0.09,Wunderground v.1.15,2013-02-08 02:52:00,
2013-02-07 20:58:00,49.3,47.9,29.88,WNW,300,7.0,10.0,95,0.00,,,0.09,Wunderground v.1.15,2013-02-08 02:58:00,
2013-02-07 21:03:00,49.1,47.7,29.88,NW,312,7.0,12.0,95,0.00,,,0.10,Wunderground v.1.15,2013-02-08 03:03:00,
2013-02-07 21:09:00,49.0,47.6,29.89,WNW,300,9.0,12.0,95,0.00,,,0.10,Wunderground v.1.15,2013-02-08 03:09:00,
2013-02-07 21:14:00,48.9,47.5,29.89,WNW,297,8.0,9.0,95,0.04,,,0.11,Wunderground v.1.15,2013-02-08 03:14:00,
2013-02-07 21:20:00,48.6,47.2,29.89,NW,304,8.0,8.0,95,0.04,,,0.11,Wunderground v.1.15,2013-02-08 03:20:00,
2013-02-07 21:26:00,48.5,47.1,29.89,WNW,301,7.0,11.0,95,0.05,,,0.12,Wunderground v.1.15,2013-02-08 03:26:00,
2013-02-07 21:32:00,48.2,46.8,29.89,NW,305,9.0,11.0,95,0.05,,,0.12,Wunderground v.1.15,2013-02-08 03:32:00,
2013-02-07 21:37:00,48.0,46.6,29.90,WNW,302,9.0,12.0,95,0.04,,,0.12,Wunderground v.1.15,2013-02-08 03:37:00,
2013-02-07 21:42:00,47.6,46.2,29.90,NW,319,10.0,17.0,95,0.00,,,0.12,Wunderground v.1.15,2013-02-08 03:42:00,
2013-02-07 21:48:00,47.1,45.5,29.90,NW,316,12.0,17.0,94,0.00,,,0.12,Wunderground v.1.15,2013-02-08 03:48:00,
2013-02-07 21:53:00,46.9,45.3,29.90,NW,312,11.0,16.0,94,0.00,,,0.12,Wunderground v.1.15,2013-02-08 03:53:00,
2013-02-07 21:59:00,46.6,45.0,29.91,NNW,335,9.0,16.0,94,0.00,,,0.12,Wunderground v.1.15,2013-02-08 03:59:00,
2013-02-07 22:05:00,46.2,44.6,29.91,NW,307,8.0,11.0,94,0.00,,,0.12,Wunderground v.1.15,2013-02-08 04:05:00,
2013-02-07 22:10:00,45.7,43.8,29.91,NW,309,10.0,13.0,93,0.00,,,0.12,Wunderground v.1.15,2013-02-08 04:10:00,
2013-02-07 22:16:00,45.4,43.5,29.91,NW,319,12.0,17.0,93,0.00,,,0.12,Wunderground v.1.15,2013-02-08 04:16:00,
2013-02-07 22:21:00,45.1,43.2,29.91,NW,304,12.0,12.0,93,0.00,,,0.12,Wunderground v.1.15,2013-02-08 04:21:00,
2013-02-07 22:27:00,44.9,43.0,29.91,NW,321,9.0,12.0,93,0.00,,,0.12,Wunderground v.1.15,2013-02-08 04:27:00,
2013-02-07 22:32:00,44.8,42.9,29.91,NW,315,8.0,9.0,93,0.00,,,0.12,Wunderground v.1.15,2013-02-08 04:32:00,
2013-02-07 22:38:00,44.6,42.7,29.92,NW,310,7.0,9.0,93,0.00,,,0.12,Wunderground v.1.15,2013-02-08 04:38:00,
2013-02-07 22:43:00,44.5,42.6,29.92,NW,322,7.0,10.0,93,0.00,,,0.12,Wunderground v.1.15,2013-02-08 04:43:00,
2013-02-07 22:49:00,44.4,42.5,29.92,WNW,292,8.0,10.0,93,0.00,,,0.12,Wunderground v.1.15,2013-02-08 04:49:00,
2013-02-07 22:54:00,44.2,42.3,29.92,NW,316,8.0,9.0,93,0.00,,,0.12,Wunderground v.1.15,2013-02-08 04:54:00,
2013-02-07 23:00:00,44.1,42.2,29.93,NW,309,10.0,12.0,93,0.00,,,0.12,Wunderground v.1.15,2013-02-08 05:00:00,
2013-02-07 23:01:00,44.0,42.1,29.93,WNW,301,10.0,12.0,93,0.00,,,0.12,Wunderground v.1.15,2013-02-08 05:01:00,
2013-02-07 23:04:00,44.0,42.1,29.93,WNW,293,11.0,13.0,93,0.00,,,0.12,Wunderground v.1.15,2013-02-08 05:04:00,
2013-02-07 23:06:00,43.9,42.0,29.93,WNW,300,12.0,13.0,93,0.00,,,0.12,Wunderground v.1.15,2013-02-08 05:06:00,
2013-02-07 23:11:00,43.8,41.9,29.93,NW,307,11.0,11.0,93,0.00,,,0.12,Wunderground v.1.15,2013-02-08 05:11:00,
2013-02-07 23:17:00,43.7,41.8,29.93,WNW,303,10.0,12.0,93,0.00,,,0.12,Wunderground v.1.15,2013-02-08 05:17:00,
2013-02-07 23:22:00,43.6,41.7,29.93,NW,323,8.0,9.0,93,0.00,,,0.12,Wunderground v.1.15,2013-02-08 05:22:00,
2013-02-07 23:28:00,43.5,41.6,29.94,WNW,295,7.0,11.0,93,0.00,,,0.12,Wunderground v.1.15,2013-02-08 05:28:00,
2013-02-07 23:33:00,43.1,40.9,29.94,NW,316,10.0,18.0,92,0.00,,,0.12,Wunderground v.1.15,2013-02-08 05:33:00,
2013-02-07 23:39:00,42.9,40.7,29.94,WNW,298,12.0,18.0,92,0.00,,,0.12,Wunderground v.1.15,2013-02-08 05:39:00,
2013-02-07 23:44:00,42.6,40.4,29.95,WNW,301,13.0,14.0,92,0.00,,,0.12,Wunderground v.1.15,2013-02-08 05:44:00,
2013-02-07 23:49:00,42.5,40.3,29.95,NW,326,13.0,15.0,92,0.00,,,0.12,Wunderground v.1.15,2013-02-08 05:49:00,
2013-02-07 23:55:00,42.4,40.0,29.95,NW,312,14.0,18.0,91,0.00,,,0.12,Wunderground v.1.15,2013-02-08 05:55:00,